Simultaneous Nadir Overpasses (SNOs) Predictions

Prediction of SNOs between NOAA-19 and NPP Satellite Orbit:

Table of predicted SNOs for the next 14.0 days since TLE Epoch: 7/27/2013
Index Date (NOAA-19) Time (NOAA-19) Lat,Lon (NOAA-19) SZA (NOAA-19 ) Date (NPP) Time (NPP) Lat,Lon (NPP) SZA (NPP ) Distance(km) Time Diff (sec)
1 08/03/2013 05:44:46 80.93, 41.23 67.38 08/03/2013 05:45:56 80.93, 41.05 67.36 3.02 70
2 08/03/2013 06:35:51 -80.93,-151.59 112.61 08/03/2013 06:36:41 -80.94,-151.67 112.63 1.48 50
3 08/03/2013 07:26:51 80.94, 15.51 67.43 08/03/2013 07:27:26 80.93, 15.68 67.38 3.05 35
4 08/03/2013 08:17:54 -80.92,-176.58 112.67 08/03/2013 08:18:10 -80.92,-176.69 112.66 1.90 16
5 08/03/2013 09:08:54 80.92, -9.48 67.36 08/03/2013 09:08:55 80.92, -9.33 67.34 2.58 1
6 08/03/2013 09:59:56 -80.88, 158.79 112.79 08/03/2013 09:59:38 -80.89, 158.66 112.76 2.31 18
7 08/03/2013 10:50:56 80.89, -34.10 67.25 08/03/2013 10:50:23 80.88, -33.98 67.25 2.11 33
8 08/03/2013 11:41:59 -80.86, 133.79 112.85 08/03/2013 11:41:07 -80.87, 133.64 112.80 2.72 52




NCC Satellite Simultaneous Nadir Overpasses (SNOs) Prediction Service
